Regional Weather Roundup
Issued by NWS

Home | Current Version | Previous Version | Text Only | Print | Product List | Glossary Off
Versions: 1 2 3 4 5 6 7 8 9 10 11 12 13 14 15 16 17 18 19 20 21 22 23 24 25 26 27 28 29 30 31 32 33 34 35 36 37 38 39 40 41 42 43 44 45 46 47 48 49 50

000
ASUS43 KMPX 221410
RWRMN
WEATHER ROUNDUP FOR MINNESOTA
NATIONAL WEATHER SERVICE TWIN CITIES/CHANHASSEN MN
900 AM CDT FRI SEP 22 2017


NOTE: "FAIR" INDICATES FEW OR NO CLOUDS BELOW 12,000 FEET WITH NO
SIGNIFICANT WEATHER AND/OR OBSTRUCTIONS TO VISIBILITY. N/A MEANS
CURRENT SKY AND/OR WEATHER CONDITIONS ARE NOT AVAILABLE.

MNZ060>063-068>070-221500-
   Twin Cities Metro

CITY           SKY/WX    TMP DP  RH WIND       PRES   REMARKS
TWIN CITIES    CLOUDY    76  72  87 SE9       29.85R
ST PAUL        CLOUDY    75  71  87 SE13      29.85S
CRYSTAL        CLOUDY    75  67  76 SE6       29.83R
BLAINE         CLOUDY    75  70  83 S10       29.85R
LAKEVILLE      CLOUDY    73  70  88 S5        29.85S
EDEN PRAIRIE   CLOUDY    76  71  85 SE10      29.83R
SOUTH ST PAUL  CLOUDY    75  69  82 SE6       29.85R
LAKE ELMO      FAIR      75  70  83 S8        29.88R
$$
MNZ001>005-007-008-013>017-022>024-027-028-221500-
   Northwest Minnesota

CITY           SKY/WX    TMP DP  RH WIND       PRES   REMARKS
BEMIDJI        CLOUDY    65  65 100 S3        29.80R FOG
HALLOCK          N/A     59  52  77 N12       29.84F
ROSEAU         SUNNY     57  52  82 N8        29.83S
WARROAD        CLOUDY    55  52  88 N8G16     29.83F
THIEF RVR FALL MOSUNNY   60  56  86 NE13      29.81F
CROOKSTON      CLOUDY    63  57  82 N10       29.79F
FOSSTON        FOG       61  61 100 NE3       29.80R VSB 1/4
DETROIT LAKES  SUNNY     70  66  88 SE9       29.78S
MOORHEAD       CLOUDY    66  64  94 N7        29.76R FOG
PARK RAPIDS    MOSUNNY   69  65  86 SE6       29.81R
MAHNOMEN       FAIR      65  65  99 NE5       29.78S FOG
$$
MNZ006-009>011-018-025>026-221500-
   North Central Minnesota

CITY           SKY/WX    TMP DP  RH WIND       PRES   REMARKS
BAUDETTE       CLOUDY    61  61 100 N6        29.80F
FLAG ISLAND    CLOUDY    59  55  88 N9        29.82F
INTL FALLS     CLOUDY    63  61  93 E5        29.81F
WASKISH        CLOUDY    63  63 100 CALM      29.79R
BIG FORK       CLOUDY    68  66  94 CALM      29.80R
LONGVILLE      CLOUDY    64  63  94 SE8       29.85R
GRAND RAPIDS   CLOUDY    65  62  90 S15       29.86R
CRANE LAKE     CLOUDY    61  61 100 CALM      29.82F
ORR            CLOUDY    64  59  82 CALM      29.76F
COOK           CLOUDY    68  61  77 N8        29.77R
WALKER         FAIR      67  65  92 S6        29.82R
$$
MNZ012-019>021-037-221500-
   Northeast Minnesota

CITY           SKY/WX    TMP DP  RH WIND       PRES   REMARKS
DULUTH         CLOUDY    67  61  81 E16       29.88F
ELY            LGT RAIN  64  63  94 SE22G32   29.80F
HIBBING        CLOUDY    66  58  75 SW9G16    29.79R
EVELETH        CLOUDY    68  57  67 CALM      29.76F
DULUTH HARBOR  TSTM      64  63  94 SE8       29.89S
TWO HARBORS    CLOUDY    66  63  88 SW13G22   29.91F
GRAND MARAIS     N/A     62  61  96 SW29G35   29.99R
G MARAIS ARPRT   N/A     61  57  88 CALM      29.94F THUNDER FOG
$$
MNZ029>031-032-039>041-046>048-054>057-064-221500-
   West Central Minnesota

CITY           SKY/WX    TMP DP  RH WIND       PRES   REMARKS
FERGUS FALLS   MOSUNNY   70  63  78 SE13      29.75S
WHEATON        PTSUNNY   73  68  83 E8        29.74S
MORRIS         MOSUNNY   75  73  94 SE10      29.75R
ALEXANDRIA     CLOUDY    72  66  81 SE13      29.80S
ELBOW LAKE     CLOUDY    68  65  90 SE9       29.76R
WADENA         CLOUDY    64  64 100 E7        29.80S
GLENWOOD       SUNNY     72  68  88 SE10      29.80S
APPLETON       SUNNY     75  72  88 E10G16    29.73S FOG
BENSON         CLOUDY    75  72  88 SE8       29.77S
ORTONVILLE     PTSUNNY   73  70  88 E10       29.73S FOG
MADISON        CLOUDY    75  75 100 E9        29.73S FOG
WILLMAR        PTSUNNY   73  72  94 E7        29.80S FOG
$$
MNZ033>034-036-042>043-049>051-058-059-221500-
   Central Minnesota

CITY           SKY/WX    TMP DP  RH WIND       PRES   REMARKS
ST CLOUD       LGT RAIN  71  71 100 E6        29.84R FOG
SAUK CENTRE    CLOUDY    71  68  90 E5        29.81S
PAYNESVILLE    CLOUDY    73  71  92 E5        29.82S
AITKIN         CLOUDY    66  64  94 E3        29.83F
PINE RIVER     CLOUDY    63  61  94 SE6       29.87F
BRAINERD       CLOUDY    65  63  93 VRB5      29.82R
STAPLES        CLOUDY    64  64 100 CALM      29.82R
LITTLE FALLS   CLOUDY    70  64  83 SE7       29.81F
LITCHFIELD     CLOUDY    75  73  94 E9        29.82S
BUFFALO        CLOUDY    70  67  89 CALM      29.86R
MAPLE LAKE     CLOUDY    73  72  97 CALM      29.86R FOG
HUTCHINSON     SUNNY     76  73  91 CALM      29.82R
$$
MNZ037-044-045-052-053-221500-
   East Central Minnesota

CITY           SKY/WX    TMP DP  RH WIND       PRES   REMARKS
PRINCETON      TSTM      72  70  94 N9        29.86S
MORA           CLOUDY    64  64 100 SE7       29.89F
CAMBRIDGE      CLOUDY    73  68  83 E6        29.87R
RUSH CITY      CLOUDY    71  69  93 NE3       29.89F
MOOSE LAKE     CLOUDY    64  63  94 SE6       29.89F
HINCKLEY       RAIN      68  68 100 NE9       29.89F
CLOQUET        TSTM      64  63  94 S21G46    30.00R
MCGREGOR       CLOUDY    66  64  94 E7G17     29.85F
$$
MNZ071>073-080-081-089-090-097-098-221500-
   Southwest Minnesota

CITY           SKY/WX    TMP DP  RH WIND       PRES   REMARKS
MONTEVIDEO     SUNNY     75  75 100 SE7       29.76R FOG
GRANITE FALLS  CLOUDY    76  73  91 NE6       29.77R
CANBY          MOSUNNY   77  72  83 E7        29.74S
MARSHALL       MOSUNNY   79  72  79 S22G32    29.72F
REDWOOD FALLS  CLOUDY    76  71  85 S12       29.76F
OLIVIA         LGT RAIN  73  72  94 E5        29.77S
PIPESTONE      SUNNY     75  72  88 S16G23    29.76S
WINDOM         SUNNY     79  70  73 S12G20    29.81R
WORTHINGTON    MOSUNNY   76  70  82 S16G22    29.80S
JACKSON        SUNNY     75  70  83 S15       29.83S
TRACY          SUNNY     76  72  87 S15G21    29.76S
SLAYTON        MOSUNNY   74  69  84 S15       29.79S
$$
MNZ065>067-074>077-082>085-091>093-221500-
   South Central Minnesota

CITY           SKY/WX    TMP DP  RH WIND       PRES   REMARKS
MANKATO        CLOUDY    77  71  82 S14G21    29.83S
NEW ULM        CLOUDY    77  70  78 S13       29.80S
ST JAMES       SUNNY     77  70  78 S13G21    29.82R
FAIRMONT       MOSUNNY   76  71  85 S16       29.84R
GLENCOE        CLOUDY    76  74  92 SE6       29.80S
FARIBAULT      CLOUDY    75  70  83 S13       29.86S
OWATONNA       CLOUDY    75  70  83 S14       29.88R
WASECA         CLOUDY    77  70  78 S13G18    29.88S
ALBERT LEA     CLOUDY    79  72  78 S15       29.89S
$$
MNZ078>079-086>088-094>096-221500-
   Southeast Minnesota

CITY           SKY/WX    TMP DP  RH WIND       PRES   REMARKS
ROCHESTER      SUNNY     75  69  81 S13       29.93R
RED WING       CLOUDY    79  70  73 SE8       29.87S
STANTON        CLOUDY    77  70  78 S13G18    29.85R
DODGE CENTER   MOSUNNY   77  68  73 S21       29.90S
WINONA         SUNNY     79  70  73 CALM      29.92S
AUSTIN         SUNNY     75  68  78 S8        29.92R
PRESTON        SUNNY     76  68  75 S17       29.95S
$$
ABBREVIATIONS USED IN REMARKS
   TC - TEMPERATURES IN CELSIUS
  WCI - WIND CHILL INDEX
   HX - HEAT INDEX
  VSB - VISIBILITY
$$



USA.gov is the U.S. government's official web portal to all federal, state and local government web resources and services.